TimeAKST,TemperatureF,Dew PointF,Humidity,Sea Level PressureIn,VisibilityMPH,Wind Direction,Wind SpeedMPH,Gust SpeedMPH,PrecipitationIn,Events,Conditions,WindDirDegrees,DateUTC
12:58 AM,-6.0,-16.1,62,30.15,10.0,North,11.5,-,N/A,,Clear,360,2014-02-21 09:58:00
1:58 AM,-6.0,-15.0,65,30.15,10.0,North,10.4,-,N/A,,Clear,360,2014-02-21 10:58:00
2:58 AM,-7.1,-16.1,65,30.16,10.0,North,10.4,-,N/A,,Clear,360,2014-02-21 11:58:00
3:58 AM,-7.1,-16.1,65,30.16,10.0,North,12.7,-,N/A,,Clear,360,2014-02-21 12:58:00
4:58 AM,-6.0,-15.0,65,30.20,10.0,North,10.4,-,N/A,,Clear,360,2014-02-21 13:58:00
5:58 AM,-7.1,-16.1,65,30.20,10.0,North,10.4,-,N/A,,Clear,10,2014-02-21 14:58:00
6:58 AM,-5.1,-14.1,65,30.19,10.0,North,10.4,-,N/A,,Clear,360,2014-02-21 15:58:00
7:58 AM,-5.1,-15.0,62,30.19,10.0,North,10.4,-,N/A,,Clear,10,2014-02-21 16:58:00
8:58 AM,-4.0,-14.1,62,30.20,10.0,North,11.5,-,N/A,,Clear,360,2014-02-21 17:58:00
9:58 AM,-2.0,-13.0,60,30.19,10.0,North,11.5,-,N/A,,Clear,360,2014-02-21 18:58:00
10:58 AM,-2.9,-14.1,59,30.21,10.0,North,5.8,-,N/A,,Clear,10,2014-02-21 19:58:00
11:58 AM,1.0,-11.0,57,30.20,10.0,North,6.9,-,N/A,,Clear,10,2014-02-21 20:58:00
12:58 PM,5.0,-9.0,52,30.20,10.0,North,8.1,-,N/A,,Clear,360,2014-02-21 21:58:00
1:58 PM,9.0,-7.1,48,30.20,10.0,North,4.6,-,N/A,,Clear,360,2014-02-21 22:58:00
2:58 PM,10.9,-6.0,47,30.19,10.0,North,5.8,-,N/A,,Clear,350,2014-02-21 23:58:00
3:58 PM,12.0,-4.0,49,30.17,10.0,NNW,8.1,-,N/A,,Clear,340,2014-02-22 00:58:00
4:58 PM,10.9,-4.0,51,30.15,10.0,North,5.8,-,N/A,,Clear,350,2014-02-22 01:58:00
5:58 PM,10.9,-4.0,51,30.13,10.0,North,8.1,-,N/A,,Clear,350,2014-02-22 02:58:00
6:58 PM,9.0,-5.1,53,30.12,10.0,North,11.5,-,N/A,,Clear,10,2014-02-22 03:58:00
7:58 PM,7.0,-6.0,55,30.11,10.0,North,10.4,-,N/A,,Clear,10,2014-02-22 04:58:00
8:58 PM,10.9,-4.0,51,30.09,10.0,NNE,12.7,-,N/A,,Clear,30,2014-02-22 05:58:00
9:58 PM,10.9,-5.1,49,30.08,10.0,North,9.2,-,N/A,,Clear,10,2014-02-22 06:58:00
10:58 PM,12.9,-5.1,45,30.06,10.0,NNE,9.2,-,N/A,,Clear,20,2014-02-22 07:58:00
11:58 PM,12.0,-5.1,46,30.05,10.0,North,6.9,-,N/A,,Clear,350,2014-02-22 08:58:00